THY3FJ LTFM-UGSB

Flight info

Callsign THY3FJ
Flight time N/A
Altitude 37000
Route EKAWE UT641 ERMUP/N0456F390 UT641 ABSAX UN743 GAKSU UT310 SIN UN644 ROLIN
Aircraft B738/M-SDE1FGHIJ1RWXYZ/LB1

Departure

Time 2026-05-05 07:18
Airport İstanbul Airport (LTFM)

Arrival

Time N/A
Airport Alexander Kartveli Batumi International Airport (UGSB)
Time Latitude Longitude Altitude Speed Heading
2026-05-05 06:51 41.26548 28.73472 333 ft 0 kts 71°
2026-05-05 07:09 41.26548 28.73471 333 ft 0 kts 71°
2026-05-05 07:09 41.26544 28.73455 333 ft 3 kts 68°
2026-05-05 07:10 41.26536 28.73430 333 ft 3 kts 62°
2026-05-05 07:10 41.26526 28.73407 333 ft 3 kts 52°
2026-05-05 07:10 41.26512 28.73389 333 ft 3 kts 30°
2026-05-05 07:10 41.26497 28.73382 333 ft 2 kts 346°
2026-05-05 07:11 41.26490 28.73385 333 ft 1 kts 341°
2026-05-05 07:11 41.26489 28.73385 333 ft 0 kts 341°
2026-05-05 07:14 41.26493 28.73383 333 ft 2 kts 341°
2026-05-05 07:15 41.26518 28.73372 333 ft 6 kts 341°
2026-05-05 07:15 41.26567 28.73350 333 ft 8 kts 341°
2026-05-05 07:15 41.26599 28.73297 333 ft 8 kts 272°
2026-05-05 07:15 41.26598 28.73227 333 ft 7 kts 269°
2026-05-05 07:16 41.26597 28.73151 333 ft 10 kts 269°
2026-05-05 07:16 41.26596 28.73050 333 ft 12 kts 269°
2026-05-05 07:16 41.26595 28.72928 333 ft 14 kts 269°
2026-05-05 07:16 41.26594 28.72807 333 ft 13 kts 268°
2026-05-05 07:17 41.26590 28.72690 333 ft 12 kts 268°
2026-05-05 07:17 41.26588 28.72578 333 ft 12 kts 269°
2026-05-05 07:17 41.26621 28.72504 333 ft 10 kts 343°
2026-05-05 07:17 41.26690 28.72500 333 ft 13 kts 359°
2026-05-05 07:18 41.26885 28.72495 333 ft 55 kts 359°
2026-05-05 07:18 41.27490 28.72481 333 ft 118 kts 359°
2026-05-05 07:18 41.28491 28.72456 426 ft 161 kts 358°
2026-05-05 07:18 41.29615 28.72452 1214 ft 159 kts 359°
2026-05-05 07:19 41.30730 28.72470 1901 ft 169 kts 360°
2026-05-05 07:19 41.31912 28.72494 2648 ft 168 kts 360°
2026-05-05 07:19 41.33064 28.72508 3478 ft 166 kts 359°
2026-05-05 07:19 41.34277 28.72512 3943 ft 186 kts 360°
2026-05-05 07:20 41.35653 28.72520 4235 ft 210 kts 360°
2026-05-05 07:20 41.37192 28.72512 4588 ft 232 kts 357°
2026-05-05 07:20 41.38816 28.72095 5247 ft 243 kts 344°
2026-05-05 07:20 41.40421 28.71261 5984 ft 252 kts 338°
2026-05-05 07:21 41.42008 28.70245 6812 ft 255 kts 336°
2026-05-05 07:21 41.43604 28.69177 7670 ft 257 kts 336°
2026-05-05 07:21 41.45214 28.68119 8520 ft 259 kts 337°
2026-05-05 07:21 41.46840 28.67062 9359 ft 261 kts 337°
2026-05-05 07:22 41.48487 28.65998 10141 ft 265 kts 338°
2026-05-05 07:22 41.50163 28.64920 10810 ft 273 kts 338°
2026-05-05 07:22 41.51935 28.63782 11186 ft 292 kts 338°
2026-05-05 07:22 41.53828 28.62577 11475 ft 312 kts 340°
2026-05-05 07:23 41.55950 28.61813 11891 ft 320 kts 359°
2026-05-05 07:23 41.58144 28.62171 12606 ft 321 kts 19°
2026-05-05 07:23 41.60107 28.63604 13328 ft 326 kts 39°
2026-05-05 07:23 41.61577 28.65954 14023 ft 336 kts 58°
2026-05-05 07:24 41.62515 28.68854 14774 ft 343 kts 66°
2026-05-05 07:24 41.63403 28.71828 15506 ft 346 kts 62°
2026-05-05 07:24 41.64506 28.74688 16194 ft 348 kts 57°
2026-05-05 07:24 41.65788 28.77454 16874 ft 351 kts 54°
2026-05-05 07:25 41.67138 28.80188 17538 ft 355 kts 54°
2026-05-05 07:25 41.68491 28.82977 18178 ft 359 kts 54°
2026-05-05 07:25 41.69845 28.85796 18826 ft 362 kts 54°
2026-05-05 07:25 41.71207 28.88643 19458 ft 364 kts 54°
2026-05-05 07:26 41.72579 28.91510 20076 ft 368 kts 54°
2026-05-05 07:26 41.73868 28.94489 20660 ft 373 kts 59°
2026-05-05 07:26 41.75021 28.97621 21234 ft 377 kts 61°
2026-05-05 07:26 41.76103 29.00829 21797 ft 380 kts 62°
2026-05-05 07:27 41.77169 29.04037 22333 ft 383 kts 62°
2026-05-05 07:27 41.78290 29.07281 22860 ft 385 kts 61°
2026-05-05 07:27 41.79422 29.10548 23393 ft 387 kts 61°
2026-05-05 07:27 41.80554 29.13836 23876 ft 391 kts 61°
2026-05-05 07:28 41.81694 29.17159 24367 ft 393 kts 61°
2026-05-05 07:28 41.82837 29.20503 24842 ft 395 kts 61°
2026-05-05 07:28 41.83999 29.23904 25325 ft 398 kts 61°
2026-05-05 07:28 41.85152 29.27289 25738 ft 401 kts 60°
2026-05-05 07:29 41.86299 29.30654 26179 ft 403 kts 60°
2026-05-05 07:29 41.87466 29.34083 26624 ft 405 kts 60°
2026-05-05 07:29 41.88639 29.37528 27055 ft 407 kts 60°
2026-05-05 07:29 41.89906 29.40929 27482 ft 406 kts 56°
2026-05-05 07:30 41.91413 29.44122 27885 ft 406 kts 50°
2026-05-05 07:30 41.94943 29.50043 28650 ft 407 kts 45°
2026-05-05 07:30 41.96821 29.52902 29044 ft 409 kts 45°
2026-05-05 07:31 41.98702 29.55779 29387 ft 411 kts 45°
2026-05-05 07:31 42.00588 29.58676 29772 ft 412 kts 45°
2026-05-05 07:31 42.02483 29.61591 30024 ft 416 kts 45°
2026-05-05 07:31 42.04264 29.64693 30335 ft 423 kts 55°
2026-05-05 07:32 42.05397 29.68374 30762 ft 433 kts 71°
2026-05-05 07:32 42.05766 29.72421 31233 ft 440 kts 83°
2026-05-05 07:32 42.05667 29.76547 31661 ft 443 kts 87°
2026-05-05 07:32 42.05420 29.80684 32062 ft 444 kts 89°
2026-05-05 07:33 42.05107 29.84822 32466 ft 443 kts 89°
2026-05-05 07:33 42.04802 29.88942 32871 ft 442 kts 89°
2026-05-05 07:33 42.04503 29.93037 33258 ft 441 kts 89°
2026-05-05 07:33 42.04205 29.97135 33633 ft 440 kts 89°
2026-05-05 07:34 42.03908 30.01224 34007 ft 439 kts 89°
2026-05-05 07:34 42.03611 30.05309 34339 ft 439 kts 89°
2026-05-05 07:34 42.03314 30.09406 34547 ft 442 kts 89°
2026-05-05 07:34 42.02992 30.13544 34628 ft 448 kts 90°
2026-05-05 07:35 42.02260 30.22003 34497 ft 464 kts 91°
2026-05-05 07:35 42.01850 30.26354 34265 ft 472 kts 91°
2026-05-05 07:35 42.01412 30.30732 34428 ft 469 kts 92°